Content
SEND FEEDBACK

Daily
Averages
Monthly
Summary
United States of America

FARRELL, MISSISSIPPI


Home > North America > United States > Mississippi
Elevation: 173 feet     Latitude: 34 12N     Longitude: 090 34W

WEATHER
 
SELECT A DAY
Number of Records: 221,074;   Date Range: 3/17/05 - 8/30/14
 
SHARE

PRINT THIS DATA

[ ← Previous Day ]
WEATHER ALMANAC - JANUARY 23, 2013
[ Next Day → ]
[ °C ]   °F
Weather ElementAverageHighLow
Temperature42.3 °F55.4 °F (2:15 pm)30.2 °F (1:55 am)
Dewpoint35.5 °F42.8 °F (3:15 pm)26.6 °F (1:35 am)
Humidity78.1 %93 % (12:35 am)54 % (1:55 pm)
Barometer30.28 in30.36 in (1:15 am)30.20 in (5:35 pm)
Wind Speed3.5 mph9.2 mph (1:55 pm)
Weather ElementAverage
Visibility10 mi
Wind DirectionESE (99.6 °)

Weather ElementTotal
Precipitation---
Heating Degree Days22.2 (Base 65)
Averaged from 70 records on January 23, 2013
WEATHER CONDITIONS BREAKOUT
WIND DIRECTION BREAKOUT
WEATHER BY HOUR - JANUARY 23, 2013
[ °C ]   °F
Local TimeTemperatureDewpointHumidityBarometerVisibilityWind DirectionWind SpeedGust SpeedPrecipitationEventsConditions
12:35 AM32.0 °F30.2 °F93 %30.35 in10.0 miNNE (30°)4.6 mphMostly Cloudy
12:55 AM32.0 °F30.2 °F93 %30.35 in10.0 miCalmScattered Clouds
1:15 AM32.0 °F28.4 °F87 %30.36 in10.0 miNorth (10°)3.5 mphScattered Clouds
1:35 AM32.0 °F26.6 °F80 %30.36 in10.0 miNorth (360°)4.6 mphClear
1:55 AM30.2 °F26.6 °F86 %30.36 in10.0 miNorth (10°)4.6 mphClear
2:15 AM30.2 °F28.4 °F93 %30.36 in10.0 miNorth (10°)4.6 mphClear
2:35 AM32.0 °F28.4 °F87 %30.36 in10.0 miNorth (10°)3.5 mphClear
2:55 AM32.0 °F26.6 °F80 %30.36 in10.0 miNNE (20°)3.5 mphClear
3:15 AM32.0 °F26.6 °F80 %30.36 in10.0 miNNE (20°)3.5 mphClear
3:35 AM32.0 °F28.4 °F87 %30.36 in10.0 miNNE (30°)3.5 mphClear
3:55 AM32.0 °F28.4 °F87 %30.35 in10.0 miCalmClear
4:15 AM32.0 °F28.4 °F87 %30.35 in10.0 miCalmMostly Cloudy
4:35 AM32.0 °F26.6 °F80 %30.35 in10.0 miCalmMostly Cloudy
4:55 AM32.0 °F28.4 °F87 %30.35 in10.0 miESE (110°)3.5 mphOvercast
5:15 AM32.0 °F28.4 °F87 %30.35 in10.0 miCalmMostly Cloudy
5:35 AM32.0 °F26.6 °F80 %30.35 in10.0 miCalmMostly Cloudy
5:55 AM32.0 °F26.6 °F80 %30.35 in10.0 miCalmOvercast
6:15 AM33.8 °F28.4 °F81 %30.35 in10.0 miCalmOvercast
6:35 AM33.8 °F28.4 °F81 %30.35 in10.0 miESE (120°)3.5 mphOvercast
6:55 AM33.8 °F28.4 °F81 %30.35 in10.0 miCalmOvercast
7:15 AM33.8 °F30.2 °F87 %30.35 in10.0 miCalmMostly Cloudy
7:35 AM33.8 °F30.2 °F87 %30.34 in10.0 miCalmMostly Cloudy
7:55 AM35.6 °F30.2 °F81 %30.34 in10.0 miCalmOvercast
8:15 AM35.6 °F30.2 °F81 %30.34 in10.0 miCalmOvercast
8:35 AM35.6 °F30.2 °F81 %30.35 in10.0 miCalmOvercast
8:55 AM37.4 °F30.2 °F75 %30.35 in10.0 miCalmOvercast
9:15 AM37.4 °F30.2 °F75 %30.36 in10.0 miCalmOvercast
9:35 AM39.2 °F32.0 °F75 %30.35 in10.0 miCalmOvercast
9:55 AM41.0 °F32.0 °F70 %30.35 in10.0 miSE (140°)4.6 mphOvercast
10:15 AM41.0 °F33.8 °F76 %30.35 in10.0 miSouth (170°)5.8 mphOvercast
10:35 AM42.8 °F32.0 °F66 %30.35 in10.0 miSouth (180°)6.9 mphOvercast
10:55 AM42.8 °F33.8 °F70 %30.34 in10.0 miSouth (170°)4.6 mphOvercast
11:15 AM42.8 °F33.8 °F70 %30.34 in10.0 miSouth (180°)3.5 mphOvercast
11:35 AM44.6 °F33.8 °F66 %30.31 in10.0 miSouth (180°)6.9 mphOvercast
11:55 AM46.4 °F35.6 °F66 %30.30 in10.0 miSouth (170°)6.9 mphMostly Cloudy
12:15 PM46.4 °F35.6 °F66 %30.29 in10.0 miSouth (180°)4.6 mphScattered Clouds
12:35 PM50.0 °F35.6 °F58 %30.28 in10.0 miSouth (180°)5.8 mphScattered Clouds
12:55 PM50.0 °F35.6 °F58 %30.27 in10.0 miSSE (160°)4.6 mphScattered Clouds
1:15 PM51.8 °F37.4 °F58 %30.25 in10.0 miSouth (170°)5.8 mphMostly Cloudy
1:35 PM51.8 °F37.4 °F58 %30.24 in10.0 miSSE (160°)8.1 mphScattered Clouds
1:55 PM53.6 °F37.4 °F54 %30.23 in10.0 miSSW (200°)9.2 mphClear
2:15 PM55.4 °F41.0 °F58 %30.23 in10.0 miSW (220°)9.2 mphClear
2:35 PM53.6 °F41.0 °F62 %30.23 in10.0 miSSW (200°)8.1 mphClear
2:55 PM55.4 °F41.0 °F58 %30.22 in10.0 miSouth (190°)9.2 mphClear
3:15 PM55.4 °F42.8 °F63 %30.23 in10.0 miSW (230°)6.9 mphClear
3:35 PM55.4 °F42.8 °F63 %30.22 in10.0 miSW (230°)8.1 mphClear
3:55 PM55.4 °F42.8 °F63 %30.22 in10.0 miSSW (210°)6.9 mphClear
4:15 PM55.4 °F42.8 °F63 %30.21 in10.0 miSSW (210°)9.2 mphClear
4:35 PM55.4 °F42.8 °F63 %30.21 in10.0 miSSW (210°)6.9 mphClear
4:55 PM53.6 °F42.8 °F67 %30.21 in10.0 miSSW (200°)6.9 mphClear
5:15 PM51.8 °F42.8 °F71 %30.21 in10.0 miSSW (200°)5.8 mphClear
5:35 PM51.8 °F42.8 °F71 %30.20 in10.0 miSSW (200°)4.6 mphClear
5:55 PM50.0 °F42.8 °F76 %30.20 in10.0 miSouth (190°)4.6 mphClear
6:15 PM48.2 °F42.8 °F82 %30.20 in10.0 miSouth (190°)5.8 mphClear
6:35 PM46.4 °F42.8 °F87 %30.20 in10.0 miSouth (190°)4.6 mphClear
7:15 PM46.4 °F42.8 °F87 %30.20 in10.0 miSouth (170°)4.6 mphClear
7:35 PM46.4 °F42.8 °F87 %30.20 in10.0 miSouth (180°)3.5 mphClear
7:55 PM44.6 °F41.0 °F87 %30.20 in10.0 miSouth (170°)4.6 mphClear
8:15 PM44.6 °F41.0 °F87 %30.20 in10.0 miSSE (160°)5.8 mphMostly Cloudy
8:35 PM46.4 °F42.8 °F87 %30.21 in10.0 miSSE (150°)4.6 mphOvercast
8:55 PM46.4 °F42.8 °F87 %30.20 in10.0 miSouth (170°)3.5 mphMostly Cloudy
9:15 PM46.4 °F42.8 °F87 %30.21 in10.0 miCalmMostly Cloudy
9:35 PM44.6 °F42.8 °F93 %30.22 in10.0 miCalmMostly Cloudy
9:55 PM44.6 °F42.8 °F93 %30.21 in10.0 miCalmMostly Cloudy
10:15 PM44.6 °F42.8 °F93 %30.22 in10.0 miCalmMostly Cloudy
10:35 PM44.6 °F42.8 °F93 %30.21 in10.0 miSE (130°)3.5 mphMostly Cloudy
10:55 PM44.6 °F42.8 °F93 %30.21 in10.0 miCalmMostly Cloudy
11:15 PM44.6 °F42.8 °F93 %30.21 in10.0 miCalmMostly Cloudy
11:35 PM44.6 °F42.8 °F93 %30.21 in10.0 miCalmMostly Cloudy
11:55 PM46.4 °F42.8 °F87 %30.21 in10.0 miCalmMostly Cloudy
Hourly data recorded from KCKM, located miles away from Farrell, Mississippi







STORIES FROM OUR PARTNERS